Change the Weather History Date:

Thursday, December 13, 2012

  Actual Average (KBUO) Record (KBUO)
Temperature  
Mean Temperature 30 °F -  
Max Temperature 33 °F 60 °F 84 °F (1998)
Min Temperature 28 °F 42 °F 37 °F (1999)
Degree Days  
Heating Degree Days 34    
Moisture  
Dew Point 29 °F    
Average Humidity 89    
Maximum Humidity 93    
Minimum Humidity 80    
Precipitation  
Precipitation 0.23 in - - ()
Sea Level Pressure  
Sea Level Pressure 29.73 in    
Wind  
Wind Speed 6 mph (WSW)    
Max Wind Speed 13 mph    
Max Gust Speed 23 mph    
Visibility 5 miles    
Events Snow    
Averages and records for this station are not official NWS values.
T = Trace of Precipitation, MM = Missing Value Source: NWS Daily Summary

Daily Weather History Graph

Daily Weather History Graph

Search for Another Location

Airport or City:

Trip Planner

Search our weather history database for the weather conditions in past years. The results will help you decide how hot, cold, wet, or windy it might be!

Date:

Astronomy

Dec. 13, 2012 Rise Set
Actual Time 6:45 AM PST 4:38 PM PST
Civil Twilight 6:17 AM PST 5:06 PM PST
Nautical Twilight 5:46 AM PST 5:37 PM PST
Astronomical Twilight 5:15 AM PST 6:08 PM PST
Moon 6:59 AM PST (12/13) 5:25 PM PST (12/13)
Length of Visible Light 10h 49m
Length of Day
9h 53m
New Moon, 0% of the Moon is Illuminated
Dec 13
New Moon
Dec 19
First Quarter
Dec 28
Full
Jan 4
Last Quarter
Jan 11
New

Hourly Weather History & Observations

Time (PST) Temp. Windchill Dew Point Humidity Pressure Visibility Wind Dir Wind Speed Gust Speed Precip Events Conditions
12:15 AM 33.8 °F 25.8 °F 30.2 °F 87% 29.80 in 10.0 mi SW 10.4 mph 23.0 mph N/A   Scattered Clouds
12:35 AM 33.8 °F 27.0 °F 30.2 °F 87% 29.79 in 10.0 mi SW 8.1 mph 18.4 mph N/A   Clear
12:55 AM 32.0 °F 23.6 °F 30.2 °F 93% 29.79 in 7.0 mi SW 10.4 mph 19.6 mph N/A   Clear
1:15 AM 32.0 °F 22.5 °F 30.2 °F 93% 29.79 in 7.0 mi SSW 12.7 mph 19.6 mph N/A   Scattered Clouds
1:35 AM 32.0 °F 23.6 °F 28.4 °F 87% 29.78 in 10.0 mi SW 10.4 mph 17.3 mph N/A   Clear
1:55 AM 32.0 °F 24.2 °F 30.2 °F 93% 29.79 in 10.0 mi SW 9.2 mph 16.1 mph N/A   Clear
2:15 AM 32.0 °F 24.8 °F 28.4 °F 87% 29.79 in 10.0 mi SW 8.1 mph 16.1 mph N/A   Scattered Clouds
2:35 AM 32.0 °F 24.8 °F 28.4 °F 87% 29.78 in 10.0 mi SW 8.1 mph 16.1 mph N/A   Scattered Clouds
2:55 AM 32.0 °F 24.2 °F 28.4 °F 87% 29.76 in 10.0 mi SW 9.2 mph - N/A   Clear
3:15 AM 32.0 °F 25.6 °F 28.4 °F 87% 29.76 in 2.0 mi SW 6.9 mph - N/A Snow Light Snow
3:35 AM 32.0 °F 24.8 °F 28.4 °F 87% 29.76 in 10.0 mi WSW 8.1 mph - N/A   Scattered Clouds
3:55 AM 32.0 °F 24.8 °F 28.4 °F 87% 29.75 in 7.0 mi SW 8.1 mph - N/A Snow Light Snow
4:15 AM 32.0 °F 23.6 °F 30.2 °F 93% 29.75 in 7.0 mi SW 10.4 mph 16.1 mph N/A Snow Light Snow
4:35 AM 32.0 °F 24.8 °F 30.2 °F 93% 29.75 in 10.0 mi SW 8.1 mph - N/A   Mostly Cloudy
4:55 AM 32.0 °F 24.2 °F 30.2 °F 93% 29.75 in 2.5 mi SW 9.2 mph 20.7 mph N/A Snow Light Snow
5:15 AM 32.0 °F 26.4 °F 30.2 °F 93% 29.74 in 2.5 mi SW 5.8 mph - N/A Snow Light Snow
5:35 AM 32.0 °F 28.7 °F 30.2 °F 93% 29.75 in 3.0 mi WSW 3.5 mph - N/A Snow Light Snow
5:55 AM 32.0 °F 28.7 °F 30.2 °F 93% 29.75 in 2.5 mi WSW 3.5 mph - N/A Snow Light Snow
6:15 AM 32.0 °F 27.5 °F 30.2 °F 93% 29.76 in 10.0 mi WSW 4.6 mph - N/A Snow Light Snow
6:35 AM 32.0 °F - 30.2 °F 93% 29.77 in 1.5 mi Calm Calm - N/A Snow Light Snow
6:55 AM 32.0 °F - 30.2 °F 93% 29.76 in 1.5 mi Calm Calm - 0.01 in Snow Light Snow
7:15 AM 32.0 °F - 30.2 °F 93% 29.76 in 2.0 mi Calm Calm - N/A Snow Light Snow
7:55 AM 32.0 °F - 30.2 °F 93% 29.77 in 2.0 mi Calm Calm - N/A Snow Light Snow
8:15 AM 32.0 °F - 30.2 °F 93% 29.76 in 0.5 mi Calm Calm - 0.02 in Snow Light Snow
8:35 AM 32.0 °F - 30.2 °F 93% 29.77 in 0.5 mi Calm Calm - 0.04 in Snow Snow
8:55 AM 32.0 °F - 30.2 °F 93% 29.78 in 0.2 mi Calm Calm - 0.09 in Snow Snow
9:15 AM 32.0 °F 26.4 °F 30.2 °F 93% 29.78 in 0.2 mi West 5.8 mph - 0.06 in Snow Snow
9:35 AM 32.0 °F 27.5 °F 30.2 °F 93% 29.78 in 0.2 mi West 4.6 mph - 0.09 in Snow Snow
9:55 AM 32.0 °F 26.4 °F 30.2 °F 93% 29.77 in 1.8 mi West 5.8 mph - 0.10 in Snow Light Snow
10:15 AM 32.0 °F 27.5 °F 28.4 °F 87% 29.78 in 1.2 mi West 4.6 mph - N/A Snow Light Snow
10:35 AM 32.0 °F - 28.4 °F 87% 29.78 in 0.8 mi Calm Calm - 0.01 in Snow Light Snow
10:55 AM 32.0 °F - 30.2 °F 93% 29.78 in 0.8 mi Calm Calm - 0.02 in Snow Light Snow
11:15 AM 32.0 °F - 30.2 °F 93% 29.77 in 1.0 mi Calm Calm - 0.01 in Snow Light Snow
11:35 AM 32.0 °F - 30.2 °F 93% 29.76 in 4.0 mi Calm Calm - 0.01 in Snow Light Snow
11:55 AM 32.0 °F 26.4 °F 30.2 °F 93% 29.75 in 0.8 mi West 5.8 mph - 0.01 in Snow Light Snow
12:15 PM 32.0 °F 26.4 °F 30.2 °F 93% 29.74 in 7.0 mi WSW 5.8 mph - N/A Snow Light Snow
12:35 PM 32.0 °F 27.5 °F 28.4 °F 87% 29.73 in 5.0 mi West 4.6 mph - N/A   Mostly Cloudy
12:55 PM 32.0 °F 27.5 °F 30.2 °F 93% 29.72 in 10.0 mi WSW 4.6 mph - N/A   Overcast
1:15 PM 33.8 °F 28.6 °F 28.4 °F 81% 29.71 in 10.0 mi WSW 5.8 mph - N/A   Overcast
1:35 PM 32.0 °F 27.5 °F 28.4 °F 87% 29.71 in 2.0 mi WSW 4.6 mph - N/A Snow Light Snow
1:55 PM 32.0 °F 26.4 °F 30.2 °F 93% 29.71 in 2.0 mi WSW 5.8 mph - N/A Snow Light Snow
2:35 PM 32.0 °F 25.6 °F 28.4 °F 87% 29.70 in 7.0 mi WSW 6.9 mph - N/A Snow Light Snow
3:35 PM 32.0 °F 27.5 °F 28.4 °F 87% 29.70 in 10.0 mi South 4.6 mph - N/A   Scattered Clouds
5:15 PM 32.0 °F - 28.4 °F 87% 29.69 in 5.0 mi Calm Calm - N/A Snow Light Snow
5:35 PM 32.0 °F - 28.4 °F 87% 29.68 in 3.0 mi Calm Calm - N/A Snow Light Snow
5:55 PM 32.0 °F - 28.4 °F 87% 29.70 in 7.0 mi Calm Calm - N/A Snow Light Snow
6:15 PM 32.0 °F - 28.4 °F 87% 29.69 in 5.0 mi Calm Calm - N/A Snow Light Snow
6:35 PM 32.0 °F - 28.4 °F 87% 29.69 in 4.0 mi Calm Calm - N/A Snow Light Snow
6:55 PM 32.0 °F - 28.4 °F 87% 29.68 in 7.0 mi Calm Calm - N/A Snow Light Snow
7:15 PM 32.0 °F - 28.4 °F 87% 29.67 in 2.5 mi Calm Calm - N/A Snow Light Snow
7:35 PM 32.0 °F - 28.4 °F 87% 29.67 in 7.0 mi Calm Calm - N/A   Overcast
7:55 PM 32.0 °F - 28.4 °F 87% 29.67 in 5.0 mi Calm Calm - N/A Snow Light Snow
8:15 PM 32.0 °F - 28.4 °F 87% 29.67 in 7.0 mi Calm Calm - N/A   Overcast
8:35 PM 32.0 °F - 28.4 °F 87% 29.67 in 7.0 mi Calm Calm - N/A   Overcast
8:55 PM 32.0 °F - 28.4 °F 87% 29.67 in 3.0 mi Calm Calm - N/A Snow Light Snow
9:15 PM 30.2 °F - 28.4 °F 93% 29.66 in 5.0 mi Calm Calm - N/A Snow Light Snow
9:35 PM 30.2 °F - 28.4 °F 93% 29.67 in 7.0 mi Calm Calm - N/A   Overcast
10:15 PM 30.2 °F 25.4 °F 26.6 °F 86% 29.67 in 10.0 mi West 4.6 mph - N/A   Overcast
10:35 PM 30.2 °F 23.4 °F 26.6 °F 86% 29.67 in 7.0 mi SW 6.9 mph - N/A   Overcast
10:55 PM 30.2 °F 25.4 °F 26.6 °F 86% 29.66 in 10.0 mi SW 4.6 mph - N/A   Overcast
11:15 PM 30.2 °F 22.6 °F 24.8 °F 80% 29.65 in 10.0 mi WSW 8.1 mph - N/A   Mostly Cloudy
11:35 PM 28.4 °F 22.2 °F 24.8 °F 86% 29.65 in 5.0 mi SW 5.8 mph - N/A Snow Light Snow
11:55 PM 28.4 °F 21.2 °F 24.8 °F 86% 29.64 in 10.0 mi WSW 6.9 mph - N/A   Overcast